Tracking 35331 objects as of 13-Sep-2026
HD Live streaming from Space Station
objects crossing your sky now

FREGAT DEB


10-day predictions


NORAD ID: 45845
Int'l Code: 2011-037CF
Launch date: July 18, 2011
Source: Commonwealth of Independent States (former USSR) (CIS)
Launch site: TYURATAM MISSILE AND SPACE COMPLEX (TTMTR)

Note: This is SATELLITE DEBRIS
Your satellite tracking list
Your tracking list is empty




NASA's NSSDC Master Catalog

Two Line Element Set (TLE):
1 45845U 11037CF  22029.42189323  .00008221  00000-0  47027-1 0  9999
2 45845  51.5270 169.2042 1568386 322.4357  27.6300 10.68970276 63604
Source of the keplerian elements: AFSPC